Theta_e
337 336 335 337 336 334 334 334 335 336 337 337 337 335 332 330 328 326 325 325 324 324 323 324 325 325 326 326 326 324 322 319 319 321 319 316 314 315 315 316 317 317 318 318 318 319 320 320 320 320 321 320 320 320 320 321 322 322 322 322 323 325 325 325 325 324 324 324 324 325 329 331 331 330 322 316 316 317 317 316 316 316 317 318 319
335 335 334 337 336 335 334 335 336 337 338 337 337 335 334 331 330 328 326 325 324 323 323 324 325 325 326 326 325 321 319 317 319 321 317 314 315 315 316 317 318 319 319 319 319 320 321 321 321 322 322 322 322 323 324 324 325 327 328 327 327 329 329 328 327 327 326 325 325 324 326 328 327 325 323 322 322 323 323 321 319 316 316 317 319
333 334 334 337 337 336 336 335 337 337 338 337 337 336 334 332 331 330 327 325 323 322 322 324 325 325 327 326 324 320 318 317 321 322 316 314 315 316 317 318 319 319 320 320 320 321 321 322 322 324 325 326 327 328 329 330 332 333 334 334 333 334 334 333 331 329 328 327 326 325 324 324 324 323 325 328 327 327 327 327 325 321 319 319 321
330 331 332 337 336 336 336 336 337 337 338 338 337 336 335 333 332 330 328 326 323 321 322 324 324 326 326 325 324 320 319 320 323 321 315 314 315 316 318 319 320 320 320 321 321 321 322 323 325 326 328 329 330 331 333 334 335 336 336 336 336 336 336 336 334 332 330 329 327 325 324 324 325 326 326 327 328 328 328 328 327 326 324 323 325
329 329 331 335 336 337 337 337 338 338 338 338 338 336 335 334 332 331 329 327 324 321 321 323 324 326 326 326 324 320 321 323 323 320 314 315 316 317 318 318 319 320 321 322 322 322 323 325 326 327 329 330 331 332 334 335 335 336 336 336 336 336 336 336 336 335 332 331 329 327 325 324 326 327 327 326 327 329 329 328 327 326 324 325 327
330 327 329 332 335 336 337 338 338 338 338 338 338 337 336 334 333 331 330 329 326 321 321 323 325 326 326 326 324 321 322 323 323 318 314 315 316 317 318 318 318 319 321 323 323 323 325 326 327 328 329 330 331 332 333 334 335 335 336 336 336 335 336 336 336 336 334 331 330 330 328 327 327 327 328 328 328 329 329 328 327 326 324 325 327
331 327 329 329 333 336 337 338 338 339 338 339 338 337 336 335 334 332 331 330 328 324 321 323 325 326 326 326 325 323 323 323 321 316 314 315 316 317 317 317 317 319 322 324 324 325 327 328 328 329 329 330 330 330 331 333 335 336 336 336 336 336 336 336 336 336 335 332 330 331 330 329 330 329 329 329 328 328 329 328 328 327 325 326 326
330 328 331 328 329 334 337 338 338 338 338 339 338 338 337 335 334 333 332 330 330 327 322 322 324 325 326 325 325 324 324 322 317 314 314 315 316 317 317 318 318 319 323 325 326 327 328 328 329 329 329 329 330 330 331 332 335 336 337 337 336 336 337 337 336 336 335 333 330 331 331 330 331 331 331 330 328 328 329 329 329 328 327 327 326
331 328 331 329 328 331 334 337 338 337 337 338 338 338 337 336 335 334 333 331 331 330 325 322 323 325 326 325 324 324 324 321 315 314 315 315 316 316 318 318 319 320 324 326 327 328 329 329 329 329 328 329 329 330 331 333 335 336 337 337 336 336 337 337 336 336 336 333 331 331 331 331 331 331 332 331 329 328 329 329 329 329 329 328 328
332 327 329 329 329 330 332 336 337 335 335 336 338 339 338 337 336 334 333 332 331 331 329 324 322 323 325 325 324 323 324 321 314 314 315 315 316 317 318 319 320 322 324 326 327 329 329 330 330 329 329 329 330 330 332 333 335 336 336 336 336 336 336 337 336 334 335 333 331 331 330 330 331 331 332 332 329 328 329 330 329 328 327 327 327
333 327 327 329 330 330 332 335 336 335 333 334 336 338 339 337 336 335 334 333 332 332 331 327 323 322 324 325 324 322 323 322 315 314 315 314 316 317 318 319 321 323 324 326 327 329 329 330 330 330 329 329 330 331 332 333 334 334 335 335 336 336 336 336 335 333 333 332 332 331 330 330 330 331 331 331 329 327 328 329 328 326 324 324 325
333 328 328 330 328 329 332 333 335 335 334 334 334 336 338 338 337 336 335 334 333 332 332 330 326 322 323 324 324 321 321 322 316 313 315 314 315 316 318 318 321 323 325 326 328 329 330 331 330 330 330 329 329 330 331 332 333 334 335 335 335 336 336 335 334 333 333 332 332 331 329 328 329 331 331 330 329 326 326 327 326 323 322 323 324
333 328 328 330 328 329 331 333 335 336 336 337 335 335 336 337 337 336 335 335 334 332 332 331 328 324 323 323 323 320 320 322 317 313 315 314 314 316 317 317 319 322 324 326 328 330 331 331 330 330 330 330 329 329 330 332 334 335 335 335 335 335 336 335 333 332 332 333 332 331 329 328 328 330 330 329 329 326 324 324 324 321 320 322 323
332 328 328 330 329 329 331 334 336 336 337 338 338 336 335 336 337 337 336 335 334 333 332 332 330 326 323 322 323 321 319 322 318 313 314 314 314 315 316 316 316 319 323 326 328 329 330 330 331 330 330 329 329 329 330 332 334 335 334 334 333 334 335 333 331 331 331 332 332 330 328 327 327 328 328 328 327 325 323 321 321 320 320 320 321
332 328 327 328 329 330 332 333 335 336 337 338 338 337 337 337 337 337 336 336 335 333 332 331 331 329 325 323 323 322 320 321 319 313 314 314 314 314 315 315 314 317 321 325 327 328 329 330 331 330 329 329 328 329 330 333 335 335 335 334 334 334 334 330 327 328 329 330 330 330 328 326 326 327 327 327 327 325 323 321 320 320 320 320 319
332 329 328 328 328 331 333 332 333 335 337 338 338 338 338 337 337 337 336 336 335 334 332 331 331 330 327 324 322 322 321 321 320 314 313 314 314 314 315 315 314 315 319 323 327 328 329 329 329 329 328 328 328 330 332 334 335 335 335 334 334 334 334 329 326 328 328 329 329 329 327 326 326 326 326 326 326 326 324 323 321 321 321 320 320
332 330 329 329 328 330 332 331 332 333 336 339 339 338 338 338 338 337 336 335 335 334 333 331 331 331 328 325 322 321 321 320 321 316 313 314 314 314 314 314 314 314 317 322 326 327 328 328 328 327 327 328 330 333 335 335 335 335 334 334 334 334 335 332 329 330 329 329 329 328 327 326 326 326 326 325 326 326 325 324 322 322 322 322 321
333 331 330 329 329 329 330 331 332 333 335 338 339 340 339 339 339 337 336 334 334 334 333 331 330 330 329 325 322 320 320 320 321 317 313 314 314 314 314 313 314 314 315 321 325 325 325 326 326 326 327 328 332 335 335 335 335 335 334 334 334 333 335 334 332 331 331 329 328 327 326 326 326 325 325 325 325 325 325 325 324 323 323 323 323
333 332 331 331 330 329 329 330 331 333 334 336 338 341 340 339 339 338 337 334 333 333 333 331 329 329 328 326 322 319 319 319 320 319 314 313 314 314 314 313 314 313 315 319 322 322 322 324 325 326 327 329 334 334 333 333 333 333 333 333 334 334 334 335 334 333 332 330 328 326 325 325 325 325 325 325 325 325 326 326 324 324 324 324 324
335 334 332 332 331 330 330 330 330 331 333 335 337 339 341 340 339 339 338 335 331 332 331 330 329 328 328 326 322 319 319 318 320 320 315 313 314 314 313 313 313 313 314 318 320 319 320 322 323 324 326 330 333 332 331 332 332 332 331 331 332 332 333 334 335 335 333 330 328 326 324 324 325 325 325 325 325 325 326 326 325 325 325 325 325
338 335 333 332 331 330 331 330 330 331 332 335 336 338 339 340 340 339 339 337 332 331 330 328 328 328 327 326 322 318 317 317 318 320 316 313 313 314 314 313 313 314 315 317 318 318 319 321 321 323 326 329 331 330 331 331 331 331 331 331 331 331 332 334 334 335 334 330 328 325 324 324 324 324 325 325 326 326 326 326 326 326 326 326 326
342 339 335 332 331 331 331 331 331 332 331 333 336 337 338 338 340 340 339 339 335 333 330 327 328 327 327 326 321 317 316 316 317 319 317 314 313 314 313 313 313 314 315 317 317 317 318 319 320 323 327 329 330 330 330 330 331 331 331 331 331 331 332 333 333 334 334 331 327 326 325 324 324 324 324 325 326 327 326 326 326 326 327 327 327
345 343 340 335 332 331 330 330 331 332 332 332 335 337 338 337 337 339 340 340 337 335 331 326 326 325 326 325 320 317 315 315 316 318 317 314 313 314 313 313 313 314 315 317 317 317 317 319 323 326 328 329 329 328 329 329 329 330 331 331 331 331 331 332 332 333 335 332 328 328 326 325 326 325 325 326 327 327 327 327 327 327 328 327 327
345 345 344 340 334 331 329 329 329 331 332 332 333 336 337 337 336 337 340 340 339 337 331 326 325 324 326 325 320 317 314 314 316 318 318 315 313 313 313 313 313 314 316 317 317 316 317 321 327 329 330 330 329 328 329 328 328 329 330 330 330 331 331 331 331 333 335 331 329 329 328 327 327 326 327 327 328 328 328 328 328 328 328 328 328
341 343 345 343 338 334 331 328 329 330 332 332 332 334 336 336 334 336 338 339 338 336 332 327 326 325 325 325 320 316 314 313 315 317 318 314 313 313 313 313 313 314 316 317 317 316 318 325 330 331 331 330 329 329 328 327 328 328 328 328 329 330 330 331 331 333 333 331 331 331 329 329 328 327 328 328 328 329 329 329 329 329 329 329 329
338 340 340 341 340 339 334 330 329 330 331 331 332 333 334 335 334 333 334 335 335 334 331 329 328 327 326 325 320 316 313 313 315 317 316 313 313 313 313 313 313 314 316 317 316 315 320 328 332 331 330 329 328 327 326 325 326 326 326 326 327 329 329 330 331 332 332 331 331 332 331 331 329 328 328 328 329 329 329 329 329 330 330 330 330
335 337 336 337 339 341 338 333 330 330 332 331 332 331 332 334 334 332 330 328 327 328 327 327 329 328 328 326 319 316 313 312 315 317 315 313 313 313 313 313 313 314 315 316 316 315 323 330 331 330 330 328 327 326 325 325 325 325 325 324 326 328 329 330 331 331 331 331 331 332 332 332 331 329 328 329 329 329 329 328 329 330 330 330 330
334 336 336 335 337 339 339 336 332 330 332 332 332 331 331 333 334 335 333 328 325 324 322 323 327 328 328 326 320 316 313 312 315 316 314 313 313 314 313 313 314 315 315 317 316 315 323 330 329 329 329 327 326 325 325 325 324 324 324 323 324 326 330 331 331 331 331 330 331 332 332 333 332 330 330 329 328 329 328 327 328 329 330 330 330
336 336 337 336 335 336 337 337 334 331 330 331 331 331 331 332 335 337 335 331 326 324 322 321 323 326 328 326 320 316 313 312 316 316 314 313 313 314 313 314 314 315 316 316 316 315 322 327 327 329 327 326 326 325 325 325 324 324 323 323 323 325 329 331 331 331 331 331 332 332 333 334 333 332 331 329 329 329 328 327 326 328 330 330 331
336 336 337 338 336 334 334 334 335 333 331 330 331 331 330 331 336 337 335 332 328 324 322 320 321 323 326 325 321 317 313 313 316 315 314 314 313 313 314 314 314 315 316 317 315 314 319 325 326 327 327 326 325 324 324 324 324 324 322 323 325 325 328 331 331 331 331 331 331 332 333 334 333 333 332 330 330 330 329 327 326 328 329 330 330
339 338 338 339 338 336 334 334 334 334 332 332 331 331 330 331 333 334 333 332 328 326 323 320 321 322 324 324 320 317 313 313 315 315 313 313 313 313 314 314 315 316 317 316 315 314 317 323 325 326 327 326 324 323 324 324 324 323 323 325 328 328 329 331 330 329 329 329 331 332 333 333 333 334 333 332 331 330 330 328 327 328 328 329 330
342 341 339 340 340 339 337 337 337 335 334 333 332 332 331 331 331 330 331 331 327 325 324 321 321 321 322 323 320 317 314 313 315 315 313 314 313 313 314 314 315 316 317 316 315 314 316 320 324 325 325 324 323 324 324 323 323 323 323 325 328 330 330 331 330 329 329 329 331 332 333 333 334 334 334 333 333 331 330 330 329 330 330 330 330
342 341 341 341 341 341 341 340 339 338 336 334 332 332 331 331 331 328 328 329 327 326 324 321 320 321 322 322 320 317 314 313 315 314 313 313 313 313 313 314 315 317 318 316 314 314 315 318 323 324 323 323 324 325 324 323 323 322 323 327 330 331 331 331 330 330 328 328 331 333 333 334 334 334 334 335 334 332 331 331 330 331 331 331 331
341 342 341 341 341 342 343 342 341 341 340 338 334 333 334 334 333 330 329 329 327 328 326 322 321 321 322 322 321 318 315 313 314 314 313 313 313 313 313 314 315 317 318 316 315 315 315 319 322 322 322 323 324 325 323 323 323 323 324 328 330 329 331 331 331 330 329 329 331 333 334 335 334 334 334 335 335 333 332 331 331 332 332 331 331
334 340 341 341 341 342 343 343 342 342 342 340 338 337 338 337 335 332 331 329 328 328 329 326 322 320 322 323 321 319 316 313 314 314 313 313 313 313 313 314 315 317 318 316 314 316 317 320 321 320 322 324 324 325 322 320 321 323 325 327 327 328 329 329 329 329 329 330 333 335 335 335 335 335 334 335 335 334 332 331 331 332 332 331 331
321 330 337 340 342 343 343 344 343 343 343 342 341 339 339 338 337 336 333 331 329 329 331 330 326 323 323 324 322 320 317 314 314 314 313 313 313 313 313 313 315 317 318 317 315 316 319 320 320 318 320 323 324 323 320 319 321 323 325 326 328 328 328 328 327 328 329 332 334 336 337 336 335 335 335 335 335 334 332 332 332 332 332 332 331
314 321 327 332 339 344 344 344 343 343 343 342 342 341 340 339 338 337 334 332 331 330 330 329 328 326 325 326 324 322 318 314 313 314 314 313 313 313 313 313 314 317 319 319 318 317 320 321 320 318 317 320 320 318 318 321 324 324 325 326 327 327 328 329 329 328 331 333 335 336 337 336 336 335 334 334 334 333 332 332 332 332 333 332 331
315 316 320 322 332 343 344 343 343 343 344 343 342 341 341 341 340 338 336 331 330 331 329 326 324 325 327 328 327 323 319 315 314 315 315 314 313 313 313 314 314 316 320 323 321 320 323 322 320 316 316 317 316 318 321 325 327 327 326 325 325 326 329 332 331 331 332 334 335 335 336 336 336 335 334 334 334 333 333 332 332 332 333 332 331
315 315 319 321 328 340 343 343 343 343 343 343 342 341 341 341 341 340 339 335 332 330 330 327 324 326 329 330 329 323 318 316 315 315 318 318 315 314 316 317 317 318 322 326 325 324 325 323 319 317 316 316 316 319 324 328 330 330 329 327 326 327 331 333 332 332 334 335 335 335 336 337 336 335 333 333 333 332 332 332 333 333 333 333 331
315 315 319 323 328 336 341 342 343 342 343 343 342 341 340 340 340 340 339 338 336 332 330 329 326 328 331 332 330 324 319 320 320 318 323 326 324 321 320 321 320 321 325 327 325 325 324 322 320 317 316 316 316 317 319 324 327 327 329 331 332 332 333 334 332 333 336 337 336 336 337 337 336 334 329 330 332 332 332 333 333 333 333 332 331
316 317 320 323 326 332 337 341 343 343 343 343 342 341 338 336 338 340 339 338 338 335 331 328 327 328 331 332 331 326 321 325 328 325 328 334 334 328 324 326 324 322 325 326 324 323 323 321 320 318 316 315 316 315 315 318 321 320 321 326 332 334 335 332 331 335 337 338 338 338 338 336 336 334 328 328 330 332 333 333 333 333 332 332 331
316 317 321 325 326 328 333 338 341 342 342 343 343 340 338 334 333 338 340 339 338 336 333 330 329 329 330 332 332 329 325 327 331 332 332 336 337 331 328 330 328 324 325 328 327 325 322 321 319 318 316 315 315 315 315 315 316 317 315 319 325 328 329 328 329 336 338 338 339 339 338 337 337 334 329 328 330 332 334 333 333 333 332 332 331
316 316 320 326 329 328 331 336 338 339 340 341 342 341 339 337 334 335 339 339 338 338 336 334 333 332 332 332 333 331 328 326 329 333 335 337 338 333 329 331 331 327 325 328 328 326 323 321 318 317 315 315 315 315 315 315 315 316 315 318 322 323 325 327 330 336 337 339 340 339 338 337 337 335 331 329 330 332 334 334 334 334 333 332 331
316 318 320 325 331 330 331 335 336 336 337 338 339 340 339 339 338 337 338 338 337 336 336 335 334 333 334 334 333 332 330 326 326 331 336 338 338 334 330 331 332 330 327 325 324 323 322 320 318 316 315 315 316 315 315 315 315 315 316 320 325 325 327 331 333 335 337 340 340 338 337 337 336 335 333 331 331 332 333 334 335 335 334 332 331
316 319 320 323 329 331 332 334 334 334 334 333 334 338 340 339 339 338 338 339 338 336 335 336 334 334 336 335 333 333 331 328 326 329 335 338 337 334 330 331 333 332 330 327 323 321 320 319 317 316 315 315 316 316 315 315 315 315 316 321 327 329 329 332 335 336 337 339 339 338 336 337 336 334 334 334 333 333 334 335 335 335 334 332 332
315 318 319 321 326 331 332 332 332 331 330 328 328 335 340 340 339 338 338 339 339 337 335 336 335 335 337 336 333 333 332 330 328 328 333 336 336 335 331 330 332 333 332 329 325 322 320 318 316 315 315 315 315 315 315 315 315 315 315 318 323 328 330 334 336 336 337 337 337 337 336 336 336 334 335 335 334 334 335 335 334 335 334 333 332
313 316 320 323 327 331 332 330 329 328 326 322 323 331 338 340 340 338 337 337 338 337 335 334 334 333 336 336 334 333 332 332 331 329 330 333 336 336 333 332 333 334 334 332 327 323 319 317 315 314 314 315 315 315 314 315 316 316 316 319 324 328 331 335 337 337 336 335 335 335 335 336 336 335 335 335 335 335 335 335 335 334 334 333 333
314 315 320 326 330 332 331 329 327 326 324 320 319 325 333 339 340 339 337 337 337 337 335 333 333 335 337 337 335 334 333 332 332 330 329 331 334 336 335 335 335 336 335 334 328 323 320 317 315 314 314 314 314 314 314 315 315 316 319 326 332 333 333 334 337 337 335 335 335 334 334 335 335 335 335 335 336 336 335 335 335 334 334 333 332
315 316 320 326 332 333 332 329 327 326 324 320 317 317 326 336 340 339 338 337 336 336 335 333 334 336 337 337 335 334 335 334 332 332 332 332 333 333 333 335 335 335 335 335 331 325 323 320 316 315 314 314 314 314 315 315 316 318 323 330 335 336 335 334 335 336 336 336 336 333 333 334 335 335 335 335 336 336 335 335 334 334 334 334 332
315 318 323 329 332 334 333 330 327 326 324 321 318 316 320 332 339 339 338 338 337 336 335 335 335 335 335 335 334 332 333 334 332 331 332 333 333 332 331 333 334 333 331 333 333 327 323 320 316 315 314 314 314 314 315 316 316 319 324 331 336 336 335 333 333 336 337 337 335 332 334 335 336 336 336 336 336 336 335 334 334 334 334 334 332
320 322 326 330 333 333 332 331 327 325 323 320 318 317 317 325 336 339 338 337 338 337 336 336 337 337 336 333 331 331 332 333 333 330 329 332 334 334 332 332 333 332 327 328 330 325 320 318 315 314 315 314 315 315 316 316 317 323 329 333 336 336 333 331 333 335 336 337 334 333 335 336 336 337 337 337 336 336 335 333 334 334 333 333 333
Wind_Speed
38 36 35 34 33 32 31 31 30 29 27 26 25 25 25 25 25 24 23 23 22 22 21 21 21 20 20 20 20 19 18 19 21 23 24 25 26 26 26 26 26 25 23 23 23 22 21 20 20 19 18 18 18 19 20 20 20 20 20 21 22 23 23 23 23 22 20 19 18 17 17 16 14 12 12 13 13 14 14 13 12 12 12 13 13
39 37 37 35 34 32 32 31 30 28 27 26 25 25 24 25 24 24 23 22 21 21 21 21 21 21 21 21 19 19 19 21 23 25 25 26 26 26 27 27 26 24 23 22 22 21 21 20 20 19 19 19 19 19 19 18 17 16 17 18 19 20 22 23 23 22 21 20 18 17 16 15 13 12 12 13 13 13 13 13 13 13 13 12 12
37 38 37 35 34 32 32 31 30 28 27 26 25 25 24 25 24 23 22 21 21 21 22 22 22 22 22 21 19 19 20 22 24 25 26 26 26 27 27 26 25 24 22 22 21 21 20 20 20 20 20 20 19 19 18 17 16 16 16 16 16 16 17 20 21 22 21 20 18 16 15 14 14 13 13 14 13 12 11 12 12 12 12 12 12
34 37 38 36 35 33 32 31 30 29 27 26 25 25 24 24 23 22 22 21 21 21 22 22 23 23 22 21 20 20 21 22 23 25 26 26 27 27 27 25 24 23 22 21 21 21 21 21 21 21 20 20 20 20 19 17 16 16 17 17 16 15 14 16 18 21 20 19 17 16 14 13 13 14 14 14 13 12 11 11 11 12 11 12 11
32 36 38 36 36 34 32 31 30 29 27 26 25 25 24 24 23 22 21 21 21 21 22 22 23 23 23 21 20 21 22 22 23 25 27 27 27 27 26 25 23 22 22 21 21 21 21 21 21 21 20 20 20 20 19 17 16 15 16 16 16 15 14 14 16 18 19 19 17 15 14 13 13 13 14 14 13 12 12 11 11 11 11 10 10
33 36 38 38 37 34 33 31 30 29 27 26 25 25 24 24 22 21 21 21 21 21 22 23 23 24 23 22 21 21 22 21 23 26 27 27 27 27 25 24 22 22 21 21 21 21 21 21 20 20 19 19 19 19 18 16 15 15 16 16 15 14 14 15 15 16 17 18 17 15 13 14 14 13 13 14 14 13 12 11 11 11 11 10 10
32 36 38 38 37 35 33 32 30 29 27 26 25 25 24 24 22 21 20 20 21 21 22 22 23 24 24 22 22 22 22 21 24 27 28 27 27 26 24 23 22 21 22 22 21 21 20 20 20 20 19 18 18 17 16 15 14 14 14 14 14 13 14 14 14 15 16 17 16 14 13 13 14 13 13 14 14 13 13 12 12 12 11 10 9
31 36 39 37 36 36 33 32 31 29 28 27 26 25 25 24 22 21 20 20 20 20 21 22 23 24 24 23 22 22 22 22 25 28 28 27 26 25 24 22 21 21 22 22 21 20 19 19 19 19 18 17 16 16 15 14 13 12 12 12 12 13 13 13 14 14 15 15 15 14 13 12 12 12 12 13 14 14 13 12 12 12 11 10 9
30 35 39 36 35 36 35 33 31 30 29 27 26 26 25 24 23 22 21 20 19 20 20 21 22 23 23 23 22 22 22 23 26 28 28 27 26 25 23 21 21 21 22 21 20 19 18 18 17 17 17 17 16 15 14 14 13 12 12 12 12 12 12 12 12 13 14 14 15 14 13 11 11 12 12 12 13 13 12 12 11 11 10 8 8
29 33 37 38 37 36 36 34 32 32 30 29 27 26 26 24 23 22 21 20 19 19 20 21 21 22 23 23 22 23 23 24 27 28 28 27 25 24 23 21 21 21 21 20 19 18 17 17 16 16 16 16 16 15 14 14 13 12 11 11 11 10 10 11 11 12 14 13 13 14 13 11 10 11 11 11 11 12 11 11 10 10 9 7 7
28 33 37 37 37 36 36 35 33 33 32 32 30 28 26 25 24 23 22 20 20 19 20 21 21 21 22 22 22 23 23 24 27 28 27 26 25 24 22 21 20 21 20 19 18 17 17 16 16 16 16 16 15 14 14 13 12 11 10 9 9 9 8 9 11 13 13 13 12 13 13 10 9 10 10 10 10 11 10 10 9 8 8 7 6
30 34 38 37 36 35 36 35 34 33 32 33 32 30 28 26 25 23 22 21 20 20 20 21 21 21 21 22 22 22 23 25 27 28 27 26 25 24 22 20 19 20 20 19 18 18 17 16 16 16 15 15 15 13 12 12 11 10 9 9 8 9 8 8 11 13 13 13 12 12 12 11 10 9 9 9 9 10 10 9 8 9 10 9 8
31 35 38 37 36 35 35 35 35 33 32 32 32 32 30 28 26 24 22 21 20 20 20 21 21 21 21 22 22 22 23 25 27 28 27 26 25 23 22 20 19 19 19 19 18 18 17 16 16 15 15 15 14 13 11 11 10 10 11 10 9 9 8 9 11 12 13 12 12 11 12 12 11 9 9 9 9 10 10 10 9 9 10 10 9
32 36 37 37 36 35 36 35 34 33 32 31 30 30 30 29 27 25 23 21 20 20 20 20 21 21 21 21 21 22 22 25 26 28 27 26 25 23 22 19 18 18 19 19 18 17 16 15 14 14 14 14 13 12 11 10 10 11 12 11 10 10 9 10 11 12 12 12 11 11 11 12 11 10 9 9 9 10 11 10 10 10 10 10 10
32 37 38 37 36 36 35 35 34 32 31 30 30 29 29 28 28 26 24 21 20 19 20 20 20 21 21 21 21 22 22 24 26 27 27 26 25 23 21 19 17 17 18 18 17 16 15 14 13 13 14 14 13 13 12 10 10 11 12 11 11 11 10 11 12 12 12 12 11 10 11 11 11 10 9 8 9 10 10 11 10 10 10 10 10
33 37 38 36 36 37 35 34 33 32 31 30 29 28 28 28 27 27 25 22 20 19 19 19 20 21 21 21 21 22 22 24 26 27 27 26 24 23 21 19 17 16 17 17 17 16 14 13 13 13 14 14 13 13 13 10 10 11 11 11 11 10 10 10 12 13 12 11 10 10 11 11 10 10 9 9 8 9 10 10 10 10 10 9 9
34 35 37 37 36 37 36 35 33 32 31 30 29 28 28 28 27 26 25 23 21 19 19 18 19 20 21 21 21 22 23 24 25 27 26 25 24 23 21 19 17 16 16 17 17 16 15 14 14 14 15 14 14 14 14 12 10 11 11 10 9 9 9 9 10 11 11 10 9 9 10 11 10 10 9 9 8 8 9 9 10 9 10 9 9
33 35 36 36 36 36 36 35 34 32 31 29 29 29 28 28 27 26 25 24 22 20 19 19 18 19 20 20 20 21 23 24 26 27 27 26 24 23 21 19 17 16 16 16 16 16 16 15 15 16 15 15 15 16 15 13 11 10 10 9 8 7 7 6 8 9 9 8 7 8 10 11 10 10 9 9 8 8 8 8 9 9 9 10 10
31 34 35 35 36 36 36 35 34 33 32 30 30 29 28 27 27 26 25 24 22 21 19 19 19 19 20 20 20 21 22 24 26 27 27 26 25 23 21 19 17 15 15 15 16 16 16 16 16 16 16 16 17 16 14 13 11 9 7 7 7 5 5 4 4 6 7 6 6 8 10 10 10 10 9 9 8 8 8 8 8 8 9 10 10
30 31 33 34 35 35 36 35 34 34 33 32 30 29 28 27 26 26 25 24 22 21 20 19 19 19 19 19 19 20 22 24 26 27 28 26 25 23 22 20 17 15 15 14 15 16 16 16 17 17 16 16 16 14 13 13 12 11 8 6 5 3 2 1 2 3 5 4 4 7 10 10 10 9 9 9 9 8 8 7 8 8 8 9 10
28 29 30 32 33 35 36 35 34 34 34 33 32 30 28 27 26 25 25 24 22 22 20 19 19 19 19 19 19 20 21 24 27 28 28 27 25 24 22 20 18 16 15 14 14 15 16 16 17 17 17 17 16 13 12 12 11 11 9 7 6 3 2 2 1 1 3 2 2 6 9 10 10 9 9 9 9 9 8 7 7 7 8 9 11
27 28 28 30 32 33 34 34 34 34 34 33 33 31 30 29 27 27 25 24 23 23 22 21 21 20 20 20 19 19 21 24 27 28 29 28 25 24 23 20 18 16 15 14 14 15 16 16 17 18 17 17 16 13 11 10 9 10 10 8 7 5 4 5 3 2 2 0 2 6 9 9 9 9 9 9 10 9 9 8 7 7 7 9 11
26 27 28 30 31 32 33 33 34 34 33 33 33 32 32 31 29 28 27 25 24 24 24 22 22 21 21 20 19 19 20 25 28 29 29 28 26 24 23 21 19 17 16 15 15 15 16 17 19 19 18 17 15 12 9 8 7 7 8 6 5 4 3 5 5 4 2 2 2 6 8 8 9 9 9 9 10 10 9 9 7 7 7 8 10
24 24 26 28 30 32 32 33 33 33 33 33 33 33 33 31 30 29 28 27 25 24 24 23 23 22 22 21 19 18 21 26 29 30 30 28 27 25 24 22 20 18 16 16 16 16 16 18 20 19 16 15 13 10 7 6 5 5 4 2 2 2 3 4 4 5 4 3 2 6 7 8 8 9 9 9 9 10 10 10 8 8 8 8 10
20 22 23 25 28 30 32 33 33 33 34 33 34 34 33 32 31 30 28 27 26 25 24 24 24 23 23 21 20 19 21 27 30 31 30 29 27 25 25 23 21 19 17 16 16 16 18 20 19 17 15 13 11 10 7 6 6 5 4 2 1 0 2 2 2 4 4 2 4 7 7 8 8 9 9 9 9 10 10 10 9 8 9 9 10
19 20 20 21 25 27 30 33 34 34 34 34 34 33 33 33 32 31 29 27 25 25 25 25 25 24 23 21 20 19 21 27 31 31 31 29 27 26 24 23 21 19 17 17 16 17 19 20 18 16 14 12 11 10 9 7 5 3 3 5 3 2 2 1 0 1 3 3 5 7 7 8 8 8 9 9 9 10 10 10 9 8 9 9 9
17 19 19 19 21 24 28 32 34 35 35 34 34 33 34 34 33 32 30 27 26 27 26 26 25 24 23 22 21 19 21 28 32 32 31 30 28 26 24 22 20 18 17 17 16 17 20 20 17 15 14 12 11 10 8 6 2 2 6 9 5 3 2 0 1 1 3 6 6 7 8 8 8 8 8 8 9 9 9 9 9 8 8 8 9
17 19 20 18 18 20 23 30 34 35 35 35 34 34 35 34 34 34 32 29 27 28 27 27 26 25 24 23 21 19 22 29 33 33 32 30 28 26 24 22 20 19 18 17 16 17 20 20 16 15 14 12 11 9 8 5 1 5 8 9 9 4 3 1 1 2 6 7 7 7 8 8 8 8 7 8 8 9 9 9 8 8 7 8 9
17 18 20 19 16 16 18 25 32 35 35 35 35 35 36 35 35 35 34 31 28 28 28 27 26 26 25 23 22 20 23 30 34 33 32 30 28 26 24 22 21 20 19 18 17 17 19 19 16 15 14 12 11 9 7 3 2 5 6 8 11 7 3 1 1 4 7 7 7 8 8 8 8 8 7 7 8 9 9 9 9 7 7 8 8
17 16 19 19 18 16 17 20 27 35 37 37 37 37 37 36 35 34 33 32 30 30 30 28 27 27 26 24 22 20 23 30 34 33 33 31 29 27 25 23 21 20 20 18 18 17 19 20 17 15 14 12 11 9 5 0 2 3 4 8 10 5 5 3 3 5 6 7 8 8 7 8 8 9 8 7 7 8 8 8 9 7 7 8 7
18 18 17 18 20 18 18 19 24 32 38 39 39 38 38 37 36 34 33 34 32 32 32 30 28 28 27 25 23 21 23 30 34 34 33 31 29 28 26 24 22 21 20 19 18 18 18 20 17 16 15 12 12 9 3 0 1 1 4 7 6 1 4 2 3 4 6 8 9 8 7 8 8 9 8 7 7 8 7 8 8 7 7 8 8
21 19 18 19 21 21 19 20 23 28 36 40 40 39 39 38 36 35 36 36 34 34 33 31 30 29 28 26 25 23 24 30 34 34 33 31 29 28 26 25 23 21 20 19 19 18 18 19 18 18 17 13 11 8 4 2 2 2 4 7 6 1 1 1 4 5 7 9 9 7 6 8 9 9 8 7 7 7 6 6 7 6 7 7 8
22 20 20 20 22 23 21 21 23 25 30 35 39 40 40 39 37 36 37 37 36 36 34 33 32 30 29 27 26 24 24 30 35 34 33 31 30 28 27 25 23 22 21 20 19 19 18 19 20 20 17 13 10 8 6 6 3 2 3 5 5 3 2 3 6 7 9 10 9 8 7 9 9 9 8 7 7 7 4 4 5 5 6 5 7
23 22 23 23 23 25 24 24 24 24 26 31 37 39 38 37 36 36 37 37 36 35 35 35 33 31 29 28 27 25 25 30 34 35 33 31 30 28 27 26 24 23 22 21 21 20 19 19 21 20 16 13 11 9 7 6 4 3 1 2 4 7 6 6 8 9 11 10 9 8 8 10 10 9 9 7 7 6 3 4 4 4 4 2 4
23 24 25 25 25 26 27 27 26 27 29 32 35 34 32 33 34 35 36 35 33 34 34 35 33 31 30 28 28 27 26 29 34 35 34 32 30 29 28 26 25 24 23 23 22 21 21 20 20 18 14 12 11 9 7 5 4 4 2 3 6 9 10 10 11 12 12 10 9 9 10 10 10 10 9 7 6 5 3 4 4 3 3 1 2
23 25 25 26 27 27 29 30 30 33 34 34 33 30 29 31 33 34 35 33 33 33 32 33 33 31 30 29 29 28 26 28 33 34 34 32 31 29 28 26 25 25 24 24 23 22 21 20 19 17 14 13 11 9 7 6 6 6 4 4 6 10 12 13 14 13 12 11 11 10 10 11 11 10 8 6 5 5 4 4 3 3 3 1 2
23 25 27 27 29 29 31 34 36 36 36 35 33 30 29 31 33 34 34 33 34 34 32 32 31 29 30 29 29 29 27 28 32 34 33 32 31 29 28 26 26 26 26 25 25 23 21 20 19 16 14 14 11 10 10 9 8 7 6 6 7 11 14 15 15 14 13 12 12 11 11 12 12 10 8 5 5 5 4 3 3 3 2 2 3
24 25 27 28 30 31 32 37 38 36 37 39 37 35 34 33 34 34 33 33 34 35 34 33 32 31 31 29 29 29 28 28 31 33 32 31 31 29 27 26 26 27 28 27 26 24 22 20 18 15 14 14 11 10 11 9 7 6 7 9 10 12 14 16 15 14 13 13 13 12 12 11 11 10 8 5 4 5 5 3 3 3 2 2 4
27 26 29 31 33 34 34 35 37 38 40 41 41 38 36 34 33 34 34 33 35 36 34 34 33 34 32 29 28 29 29 28 29 32 30 29 30 28 26 26 27 29 28 27 26 25 23 22 19 15 14 13 11 11 11 8 5 4 6 9 11 14 16 15 14 13 13 12 12 12 10 10 10 9 8 6 4 5 5 5 4 3 3 4 5
31 29 32 35 36 36 35 34 35 39 41 42 43 39 34 34 33 34 35 34 36 36 36 36 35 35 33 29 29 29 30 29 29 30 29 27 27 27 26 26 28 30 29 28 27 25 23 22 20 17 14 13 13 13 12 9 8 7 8 9 12 14 15 14 13 12 11 11 11 10 9 9 9 8 7 7 6 6 6 5 4 4 5 5 6
35 35 37 38 39 38 36 35 34 38 41 43 44 38 34 35 35 37 38 36 36 36 36 37 35 36 33 29 29 31 31 31 30 29 28 26 25 26 27 27 29 31 31 29 28 25 23 21 20 18 16 15 14 13 12 11 12 12 12 13 15 16 15 15 14 11 11 11 10 10 9 9 8 6 6 7 7 8 7 5 5 6 6 6 5
38 39 40 41 40 39 37 34 33 35 36 40 41 36 35 38 37 38 40 38 36 35 34 34 34 35 33 30 29 31 32 33 32 31 29 26 25 26 29 29 30 32 32 32 30 28 25 23 21 20 18 17 15 14 14 14 15 15 15 16 17 18 17 16 14 12 11 11 10 9 9 8 8 7 6 7 8 8 9 6 5 6 7 6 5
37 41 42 42 40 38 37 32 29 29 28 31 34 32 35 39 39 39 40 39 35 33 33 33 33 34 33 32 30 32 33 34 35 33 30 28 26 28 31 32 32 33 34 34 33 32 29 26 24 22 20 19 17 16 16 16 16 16 16 17 17 17 16 14 14 13 11 11 10 9 9 8 8 7 7 8 9 9 9 8 7 7 7 6 5
34 42 42 42 41 39 36 30 25 23 21 21 23 25 31 37 40 40 41 39 33 30 31 32 33 34 34 34 32 33 35 36 36 36 33 30 28 29 31 34 34 34 35 35 35 33 31 28 25 23 21 21 19 17 16 16 17 17 16 16 15 15 13 10 11 12 11 11 10 9 8 8 8 7 7 7 8 9 9 9 8 7 6 6 4
28 39 43 42 42 40 35 29 25 23 21 19 19 23 31 39 42 42 41 39 35 34 34 35 36 36 36 37 35 33 34 36 37 38 36 32 30 30 32 35 35 35 36 35 34 32 30 27 25 23 22 22 19 17 17 16 17 17 17 15 13 13 13 10 9 10 11 11 10 9 9 8 8 8 7 7 7 8 8 9 9 7 7 6 4
26 34 42 43 41 41 36 31 29 27 24 21 21 25 34 41 45 45 44 43 43 42 39 38 38 38 38 39 36 33 33 35 37 38 38 35 32 32 33 35 36 37 37 36 34 32 29 26 23 23 23 23 20 19 18 17 17 17 18 18 15 14 14 11 10 10 10 10 10 9 9 8 8 9 8 7 7 7 7 7 8 6 7 7 5
28 30 38 43 41 40 37 33 32 29 26 23 24 28 33 39 45 47 47 47 47 46 41 38 38 38 39 39 36 33 33 35 37 39 39 38 35 34 34 36 37 38 38 38 36 33 29 25 23 24 24 23 22 21 20 17 17 18 18 18 17 17 16 13 11 10 8 7 8 9 9 9 9 9 9 8 7 7 6 6 7 7 6 7 7
28 29 36 42 40 38 37 34 33 30 27 24 26 29 31 35 43 48 50 48 47 46 42 38 38 38 39 40 37 35 34 34 36 38 40 40 38 37 36 37 39 39 38 38 37 33 29 27 25 25 25 24 24 22 20 18 18 18 17 17 16 16 18 17 14 12 10 8 8 8 9 9 9 9 9 9 9 7 6 5 6 7 5 6 7
29 30 37 41 39 38 37 35 34 31 27 26 28 27 27 31 41 48 51 50 47 46 42 39 38 37 39 40 38 35 34 35 36 38 39 40 40 39 39 39 39 39 38 38 36 33 31 29 28 27 26 25 24 22 20 19 19 18 17 16 16 16 18 19 18 15 13 11 10 8 8 10 8 7 8 10 9 7 6 6 6 6 5 6 5
34 31 36 40 38 37 37 36 35 32 29 28 28 27 26 28 38 48 51 51 49 47 43 40 39 40 41 41 38 35 34 35 36 37 38 39 40 40 40 40 41 40 39 38 35 33 32 30 29 28 26 25 23 22 20 20 20 20 18 17 17 18 18 19 18 16 14 13 11 8 7 8 6 6 7 8 9 7 6 6 6 5 6 6 5
34 35 37 40 39 37 36 35 34 32 29 28 28 29 28 27 34 46 51 50 49 48 45 43 43 45 45 42 38 37 35 35 35 36 38 40 40 41 40 41 42 42 40 39 36 33 31 30 29 28 26 25 23 22 21 21 21 21 20 19 19 19 18 17 16 15 14 14 12 8 7 7 5 6 7 7 8 7 5 5 5 5 5 5 4
Wind_Direction
168 166 163 158 159 159 156 154 151 150 149 148 145 144 143 144 145 146 148 150 152 154 155 156 156 154 151 147 147 148 149 147 144 141 139 139 134 129 126 124 123 122 120 118 117 116 115 115 114 113 110 109 109 108 107 104 102 100 97 95 91 88 84 81 78 74 72 72 73 78 84 88 86 81 78 80 83 82 80 81 83 84 86 90 92
167 166 164 160 160 159 157 154 151 150 150 149 147 145 145 145 145 145 147 150 152 155 156 157 156 154 150 147 146 147 147 144 142 140 140 139 134 130 128 127 125 124 123 122 122 120 119 117 114 111 110 109 109 108 107 104 101 99 95 94 90 85 80 77 75 72 69 67 66 67 75 81 81 76 71 71 74 76 75 75 75 78 80 85 89
165 166 164 160 161 159 158 155 152 152 152 151 149 148 147 146 145 145 147 149 151 155 157 157 156 154 149 146 146 146 145 143 141 141 142 140 135 132 131 130 128 127 126 125 124 122 120 117 114 111 110 107 106 105 103 101 98 96 93 91 89 84 81 77 73 71 68 66 65 63 66 72 72 71 73 74 73 71 70 70 69 71 77 80 84
166 165 164 161 161 160 159 156 154 153 154 154 152 150 148 148 146 146 146 148 150 154 157 157 156 153 149 147 147 146 145 143 143 144 144 141 137 135 134 133 131 130 128 127 126 123 121 118 116 112 109 105 102 101 100 99 97 94 90 88 86 85 85 81 75 71 68 66 65 63 65 70 73 74 76 79 79 77 72 68 67 69 73 78 81
168 165 164 163 163 162 160 157 156 155 155 155 154 153 151 150 148 147 147 147 149 153 156 157 156 153 150 148 148 147 145 145 145 146 146 142 140 138 137 136 134 132 130 129 126 123 122 120 117 113 109 104 100 99 98 97 95 92 89 87 84 82 85 84 80 74 67 65 64 64 66 70 74 75 72 74 77 78 75 68 66 69 73 79 81
169 167 165 165 164 163 161 158 157 157 157 158 157 156 154 152 150 149 147 147 149 152 155 157 156 153 151 150 149 148 146 146 147 149 148 145 142 141 139 138 136 134 133 130 126 124 124 122 119 115 110 104 100 99 98 96 94 91 89 87 82 81 84 82 81 77 68 63 61 62 65 68 72 73 69 68 71 73 73 68 67 70 76 80 83
171 169 167 166 165 163 162 160 159 159 159 160 160 158 157 155 153 151 148 148 149 152 155 157 157 155 153 151 150 148 147 147 150 151 149 147 145 143 141 140 139 137 135 131 127 127 127 124 120 116 111 106 102 99 97 96 93 89 87 84 80 84 84 78 77 76 69 60 57 59 61 65 68 71 66 63 65 68 68 65 66 70 74 77 82
172 170 168 167 166 164 162 162 161 161 161 162 162 161 160 158 156 153 151 149 150 152 154 157 158 156 154 153 151 150 148 149 153 153 151 149 147 144 143 142 141 140 137 132 130 130 130 127 123 118 113 108 103 99 98 96 93 87 83 80 82 86 82 74 72 73 70 59 56 57 60 63 64 68 65 60 62 66 66 63 65 66 69 71 76
171 172 169 168 169 166 164 164 163 162 163 164 164 164 163 161 159 156 153 151 151 153 155 157 158 158 157 155 153 151 150 152 155 154 153 151 148 146 144 143 143 142 139 135 134 134 133 130 126 121 115 110 104 100 98 98 96 90 85 83 84 85 80 74 69 69 69 60 56 56 58 61 61 64 63 59 59 65 65 63 62 61 60 59 67
170 175 172 170 171 168 166 166 166 165 164 165 165 166 165 165 163 160 157 154 154 154 157 158 159 159 159 158 156 154 152 154 157 156 154 153 151 148 146 145 145 144 142 139 138 138 136 133 129 124 117 113 106 101 99 99 97 91 86 83 84 85 84 80 70 65 66 60 54 53 55 57 57 61 63 59 58 64 66 62 59 58 55 49 55
170 176 174 172 172 170 168 166 168 169 167 166 165 168 168 167 166 163 161 158 157 157 158 160 160 160 161 162 159 157 155 156 159 158 156 156 153 150 149 148 147 146 144 142 142 140 138 135 131 127 121 116 110 104 101 100 98 92 83 78 82 87 87 84 75 69 65 59 52 48 50 52 55 60 64 62 59 63 68 68 62 56 52 52 57
169 175 173 173 174 171 169 168 171 172 171 169 165 167 168 169 169 167 165 162 162 160 161 162 163 162 162 164 163 160 158 158 161 160 159 158 156 153 152 150 150 148 146 145 143 140 138 137 133 129 124 120 114 108 106 104 101 94 85 82 85 88 85 81 76 72 67 59 51 45 46 47 54 62 64 63 59 59 65 69 65 56 52 57 64
167 174 173 174 175 171 171 170 172 173 174 173 169 166 166 168 169 169 169 168 166 164 164 164 165 164 164 166 165 163 160 160 162 163 161 161 159 156 156 153 151 149 147 146 144 141 139 138 134 129 125 122 117 111 111 109 103 92 89 89 90 92 88 83 80 75 68 59 51 44 43 44 51 59 60 62 59 55 57 62 62 59 56 60 65
164 173 173 174 175 171 172 171 173 175 175 176 173 170 168 168 169 169 170 172 171 168 168 166 167 166 166 167 167 165 163 163 164 165 164 164 162 160 160 156 152 150 149 146 145 144 141 139 136 131 127 125 119 113 113 111 104 93 91 89 91 97 92 86 81 73 66 59 51 43 40 43 48 52 52 55 54 51 51 54 58 57 58 59 62
163 171 173 174 174 171 172 172 174 176 177 177 176 174 172 172 170 169 169 174 176 173 172 169 168 168 168 169 168 167 166 166 166 166 166 166 165 163 163 159 155 153 151 147 146 146 144 142 138 133 129 127 121 116 115 112 104 95 92 89 92 96 91 86 78 68 63 58 52 44 39 41 45 46 45 47 46 46 46 49 54 55 55 56 57
166 170 172 174 173 172 173 173 176 177 179 179 179 178 177 176 173 171 169 173 177 177 176 173 170 169 171 171 170 170 169 169 168 169 168 168 168 166 166 162 158 157 154 148 146 146 146 144 140 135 131 129 124 121 121 115 104 96 93 91 94 93 88 88 77 66 63 56 51 44 39 40 42 43 42 43 41 42 44 47 50 52 53 52 51
169 172 172 174 174 173 174 175 176 177 180 181 181 182 182 181 178 174 170 172 177 179 179 176 174 171 173 174 173 173 173 172 170 171 170 171 170 170 169 165 162 160 156 150 147 147 146 145 141 136 133 131 126 124 123 115 106 98 94 93 95 88 84 87 77 68 64 56 50 43 39 39 40 40 40 41 40 39 41 44 47 48 49 49 49
170 174 174 174 174 174 175 176 176 177 180 182 184 185 186 185 182 178 172 174 176 180 181 179 178 175 175 176 176 176 176 175 173 173 172 173 173 173 171 168 166 162 158 151 148 145 144 143 139 138 135 132 127 125 121 115 112 103 96 96 98 91 81 82 77 74 69 57 48 42 39 36 37 39 38 38 37 38 39 42 46 45 46 48 49
172 176 176 176 175 176 176 176 177 177 179 183 187 187 188 188 186 183 179 176 176 180 183 181 180 178 179 179 180 179 179 179 176 175 175 175 176 175 173 171 169 165 161 153 147 142 140 140 138 138 136 134 130 124 119 118 120 115 106 101 103 95 76 74 75 78 74 59 44 40 38 34 35 37 37 38 34 34 35 37 43 44 45 46 48
172 177 179 179 178 178 177 178 180 180 180 183 187 189 190 190 189 188 186 181 176 179 183 184 182 181 182 182 184 183 183 182 179 178 177 177 178 176 175 174 172 168 163 155 147 141 138 138 137 138 137 138 133 123 118 119 119 120 121 116 117 107 71 42 57 92 82 59 42 38 36 32 31 33 35 37 33 32 31 31 37 40 40 41 44
167 177 182 184 183 182 180 182 183 182 182 183 186 188 190 191 192 191 191 188 180 180 184 186 184 183 185 186 188 188 187 185 182 181 179 179 179 178 177 176 174 170 165 157 148 141 138 137 138 138 138 138 133 121 116 114 112 115 117 124 138 139 176 236 296 138 106 61 34 35 32 28 27 28 31 34 34 32 28 27 30 34 34 34 37
161 172 183 188 188 187 186 185 184 184 184 185 186 187 189 191 193 192 193 194 188 184 184 188 187 185 186 189 191 191 190 188 185 183 181 180 180 179 179 179 176 170 167 159 150 143 139 138 138 137 137 136 131 124 124 120 113 111 110 123 142 139 190 226 262 254 149 160 1 31 26 25 24 21 25 30 32 32 31 27 26 28 27 29 31
163 169 178 187 192 192 191 189 187 187 187 187 188 188 188 190 192 194 194 195 195 191 186 188 189 187 189 191 193 193 192 190 188 185 183 181 180 181 180 181 178 171 167 161 153 146 141 140 138 137 136 137 137 139 143 136 127 122 114 119 136 140 226 250 254 251 205 218 331 21 18 20 19 17 21 24 27 30 32 29 29 26 23 26 27
171 173 176 183 192 194 194 194 192 191 190 190 190 191 190 190 193 195 195 194 197 197 192 190 190 190 191 194 194 194 194 192 189 187 185 183 182 182 182 184 181 174 168 162 155 148 145 143 140 136 134 137 144 152 153 139 132 127 116 104 101 141 265 274 239 226 211 219 332 7 9 14 13 12 16 19 22 24 26 26 29 26 22 23 24
179 178 179 184 190 195 198 197 196 195 194 193 193 193 191 191 194 196 198 197 198 200 198 194 193 193 192 194 196 196 197 193 190 189 187 184 183 184 184 186 184 176 169 163 157 150 148 146 141 133 128 134 144 149 141 121 117 108 88 42 11 270 270 265 208 208 208 247 331 354 1 6 5 8 12 14 17 20 20 19 22 22 21 21 21
187 185 186 189 190 195 201 199 198 199 198 197 196 195 193 193 194 195 197 198 200 204 204 199 197 196 194 196 197 198 199 195 191 190 187 185 184 185 186 188 186 179 171 165 159 152 150 148 140 131 128 132 139 139 128 117 118 107 23 2 333 243 220 183 77 182 221 296 330 346 355 358 357 2 7 9 12 16 16 12 15 18 18 20 18
194 193 190 192 193 195 202 203 202 201 200 200 199 198 198 196 195 195 196 195 198 206 208 203 202 199 197 198 198 199 199 196 192 190 188 186 185 185 187 189 187 181 175 168 161 155 152 151 142 135 133 131 135 136 131 128 120 357 348 357 349 261 231 230 35 19 297 316 328 339 350 351 349 354 0 5 9 11 9 6 9 14 15 16 16
194 193 191 192 196 195 200 205 206 205 203 202 201 202 203 200 197 198 198 195 196 205 210 206 204 202 201 201 199 200 200 197 194 191 188 187 186 185 187 189 188 184 179 172 165 159 157 157 151 144 140 136 138 140 142 142 20 350 351 355 352 318 256 270 29 326 315 321 327 338 347 346 342 343 349 358 7 6 2 360 3 11 11 11 14
194 196 195 192 195 198 201 206 209 209 207 206 204 204 207 204 200 201 200 196 196 204 210 208 207 205 203 204 201 201 202 199 195 192 189 188 187 186 187 188 189 187 181 176 169 162 163 166 162 153 144 140 142 149 154 146 339 343 347 339 339 326 249 243 339 313 321 325 328 337 344 343 339 336 337 348 2 1 356 356 359 6 8 12 16
199 204 202 197 194 201 209 211 212 212 210 209 208 207 209 207 204 203 201 199 198 204 209 208 209 208 206 205 203 202 203 200 197 192 190 189 188 187 187 187 190 191 184 177 172 166 168 172 170 160 149 145 151 157 159 90 322 319 328 323 331 320 239 246 323 320 330 334 332 337 341 345 341 331 329 337 354 357 354 355 359 4 7 14 18
203 208 212 208 200 204 215 215 214 215 214 212 211 211 211 210 208 205 202 201 202 206 207 206 208 210 209 206 203 204 203 201 199 195 192 191 190 190 189 189 192 192 187 179 174 171 173 177 174 164 158 156 158 159 159 281 238 275 322 335 352 339 215 228 328 332 339 341 336 335 342 350 345 332 324 327 344 354 353 355 357 358 359 10 23
207 211 218 218 211 208 214 217 215 217 219 216 215 214 213 213 211 210 207 204 205 207 206 206 206 208 210 207 205 205 202 200 200 197 195 194 192 191 192 193 193 192 188 182 178 177 180 182 177 170 166 164 161 160 167 168 169 270 314 347 10 32 172 257 322 326 331 335 337 339 350 355 349 335 325 321 336 351 353 352 354 351 353 10 29
212 216 219 225 225 217 215 218 216 219 224 223 222 219 217 215 214 215 213 209 208 207 206 208 206 206 209 209 207 207 204 201 200 199 198 197 196 194 194 194 193 193 190 186 183 182 186 186 182 178 171 166 167 171 173 160 162 279 318 360 1 332 322 314 310 315 322 330 335 341 352 356 352 341 330 321 330 348 351 346 350 351 1 19 30
213 213 218 227 232 226 219 218 218 220 224 226 226 223 219 216 215 218 219 216 213 210 209 210 207 206 208 210 209 208 207 202 200 200 200 200 200 197 196 195 194 195 192 191 189 187 192 193 188 184 174 167 174 178 172 165 186 250 314 5 323 306 303 301 303 308 317 324 329 335 347 352 352 345 334 324 326 341 340 337 346 347 2 16 12
219 212 217 227 232 231 223 219 220 217 218 222 222 218 216 217 217 221 223 221 220 217 216 214 211 207 207 210 211 210 209 205 201 202 202 201 203 200 198 196 196 197 195 195 194 191 194 197 191 186 178 172 178 180 175 178 196 201 210 273 296 299 296 297 305 312 317 320 322 330 342 345 345 342 333 325 322 331 330 331 338 333 346 342 330
229 220 218 226 230 231 226 220 218 214 214 219 220 217 218 221 220 220 223 225 225 223 221 222 217 212 209 210 214 212 211 207 202 203 204 203 204 204 200 198 198 199 198 198 199 197 194 195 192 185 180 178 181 185 188 190 188 190 213 263 281 286 288 296 306 315 318 319 320 324 331 333 335 336 330 324 320 320 321 321 323 319 326 280 305
232 226 221 226 227 227 225 218 215 215 216 220 222 222 221 223 223 222 223 224 225 223 224 227 226 222 216 212 215 214 212 209 204 204 207 206 206 206 203 201 202 201 199 200 203 202 198 197 195 188 183 184 186 192 196 192 192 209 231 243 256 272 282 291 303 313 316 317 317 315 320 324 328 332 331 328 319 309 306 307 304 302 296 260 307
232 230 224 226 227 223 221 218 216 217 219 219 217 216 213 214 219 221 221 219 220 220 222 225 227 229 224 217 215 215 213 210 206 205 208 209 209 209 206 202 204 204 201 202 206 205 202 202 201 193 187 190 192 191 193 194 202 234 247 240 248 262 272 284 298 311 315 314 312 309 314 322 327 329 330 330 316 303 299 296 291 285 270 267 303
232 233 227 224 224 222 220 220 219 220 221 219 216 214 213 213 215 217 216 216 216 217 219 222 226 228 227 221 216 215 212 209 209 206 207 211 212 213 211 204 204 206 204 206 207 204 203 205 206 202 197 199 197 192 195 198 203 234 249 242 244 254 265 280 299 309 309 309 309 309 312 321 326 325 328 326 309 304 306 295 281 269 258 269 297
231 231 226 222 221 221 220 219 221 222 222 220 216 214 216 218 221 220 217 214 214 214 215 219 224 226 227 223 216 215 211 208 209 207 207 210 214 217 215 208 206 206 207 209 209 206 206 208 209 210 208 207 204 203 205 206 210 228 245 245 246 255 264 279 296 301 299 300 305 311 314 317 321 323 327 326 311 306 305 286 264 261 263 273 295
229 226 224 222 221 222 221 218 219 222 223 223 218 213 215 217 219 220 218 216 214 214 215 216 220 224 225 223 217 214 212 209 208 208 208 209 213 217 216 212 211 210 211 214 215 214 213 214 215 217 219 219 215 215 217 219 225 236 246 249 251 257 264 276 284 280 281 289 298 307 313 314 313 310 317 327 320 308 301 280 252 260 273 278 290
228 225 224 223 222 222 222 220 218 221 225 228 225 219 217 218 218 219 216 212 208 210 215 216 218 222 223 222 219 215 212 210 208 208 210 210 211 214 215 215 215 214 214 217 220 221 222 220 220 221 225 228 225 222 225 228 233 240 249 253 255 258 263 271 270 261 264 274 284 295 302 305 304 294 295 316 320 311 304 291 258 259 276 283 292
230 227 225 223 221 222 223 221 219 221 227 232 230 224 222 222 221 221 216 211 207 209 215 217 218 221 223 223 221 217 213 211 210 208 210 212 210 212 215 217 218 219 218 220 222 225 226 225 224 224 226 232 230 226 227 230 234 240 248 253 257 264 267 265 256 253 257 261 265 278 286 290 292 284 281 300 311 311 308 296 273 265 272 281 295
233 227 224 221 219 220 220 217 214 215 216 224 229 226 225 223 219 218 215 213 213 214 216 220 222 223 223 224 222 218 214 212 211 209 210 213 213 213 216 218 222 224 224 226 226 227 227 226 226 225 227 232 230 226 226 229 235 238 242 247 253 262 265 255 248 252 253 250 253 260 269 276 276 272 273 289 301 306 307 298 288 280 273 276 293
238 229 224 221 219 218 217 211 208 209 208 216 225 222 221 217 212 210 208 208 209 209 210 215 219 220 221 222 221 218 215 213 211 210 211 214 215 215 216 219 223 226 229 231 231 230 228 227 227 227 229 233 232 231 232 233 238 239 239 241 244 252 255 250 244 250 251 249 250 248 254 264 262 258 262 276 290 298 300 299 300 291 278 282 290
241 235 227 222 220 217 213 210 210 212 212 220 225 222 219 214 211 208 206 205 203 202 206 210 214 218 220 221 220 218 218 215 211 211 211 214 216 216 217 220 224 227 230 233 235 234 231 227 227 230 233 236 236 237 238 237 237 237 237 239 244 252 259 257 239 238 249 254 253 245 246 255 254 248 255 271 284 293 292 293 302 289 266 271 278
240 238 228 221 218 214 210 211 215 215 214 220 223 224 221 216 214 213 211 208 205 204 204 209 215 218 219 221 220 218 218 217 213 212 212 214 215 216 219 221 224 228 231 235 236 234 231 228 227 230 234 238 240 240 240 237 233 232 232 234 242 250 258 259 239 234 250 260 260 248 241 248 248 243 250 268 281 287 282 279 290 286 258 248 257
237 231 224 219 215 211 210 212 216 215 213 214 219 224 225 219 215 214 213 211 212 211 206 208 214 216 217 220 221 218 217 217 217 214 213 214 216 217 220 223 225 228 231 235 236 234 232 230 228 229 232 235 239 241 240 235 231 231 227 225 233 243 251 255 249 248 254 258 259 247 239 245 247 244 249 262 273 277 274 269 269 271 259 241 241
234 227 219 216 212 209 209 212 214 213 211 212 218 226 229 223 216 214 212 211 215 217 213 209 209 212 216 219 221 220 217 217 218 217 216 216 218 220 222 225 227 230 232 234 234 235 233 230 228 227 229 232 235 238 237 233 231 231 226 223 229 236 245 251 251 251 251 251 253 249 246 245 241 243 252 259 265 264 261 263 261 256 249 249 245
229 224 215 210 208 205 205 208 212 212 211 214 222 231 234 225 217 215 213 213 215 217 215 211 208 210 214 216 218 221 221 219 219 219 219 219 220 223 224 227 229 231 233 234 232 231 231 230 227 226 227 231 234 235 233 230 231 232 229 227 230 235 240 245 246 244 242 243 248 248 241 236 228 229 246 254 254 246 244 252 255 248 236 244 253
223 214 209 206 203 201 202 205 210 213 214 217 226 237 239 230 221 217 215 215 215 213 211 210 210 211 213 214 216 220 222 221 220 220 221 221 222 225 226 226 228 231 235 236 232 229 229 228 226 224 226 230 234 236 232 227 228 228 228 228 229 234 240 246 249 246 244 244 248 247 234 233 227 216 229 241 238 230 232 238 239 239 239 243 249